When you browse on this site, cookies collect data to enhance your experience and personalize the content and advertising you see.
Visit our Privacy Policy to learn more. By continuing to use the site, you agree to this use of cookies and data.
  • In Portugal
  • List of Countries
  • For 7 days
  • Water Temperature
  • Satellite Maps
  • Weather Map
  • Weather Widgets
  • user-avatar
    Login

    Hourly Weather Swietoszow

    Today, 20 March, Wednesday

    Time Temperature Precipitation Wind Pressure Humidity
    00:00 +1°C° 0 mm 2 mps 760 mmHg 86%
    01:00 +1°C° 0 mm 2 mps 760 mmHg 88%
    02:00 +1°C° 0 mm 2 mps 760 mmHg 89%
    03:00 +1°C° 0 mm 2 mps 760 mmHg 91%
    04:00 -1°C° 0 mm 2 mps 760 mmHg 92%
    05:00 -1°C° 0 mm 2 mps 761 mmHg 91%
    06:00 +1°C° 0 mm 2 mps 761 mmHg 90%
    07:00 +1°C° 0 mm 2 mps 761 mmHg 87%
    08:00 +3°C° 0 mm 2 mps 762 mmHg 78%
    09:00 +4°C° 0 mm 3 mps 762 mmHg 69%
    10:00 +7°C° 0 mm 3 mps 762 mmHg 60%
    11:00 +8°C° 0 mm 3 mps 762 mmHg 55%
    12:00 +9°C° 0 mm 3 mps 762 mmHg 51%
    13:00 +10°C° 0 mm 3 mps 762 mmHg 46%
    14:00 +10°C° 0 mm 3 mps 762 mmHg 45%
    15:00 +10°C° 0 mm 3 mps 761 mmHg 45%
    16:00 +11°C° 0 mm 3 mps 761 mmHg 44%
    17:00 +9°C° 0 mm 3 mps 761 mmHg 50%
    18:00 +8°C° 0 mm 2 mps 761 mmHg 57%
    19:00 +6°C° 0 mm 2 mps 761 mmHg 63%
    20:00 +6°C° 0 mm 2 mps 762 mmHg 64%
    21:00 +5°C° 0 mm 2 mps 762 mmHg 66%
    22:00 +5°C° 0 mm 2 mps 762 mmHg 67%
    23:00 +5°C° 0 mm 2 mps 762 mmHg 67%

    Tomorrow, 21 March, Thursday

    Time Temperature Precipitation Wind Pressure Humidity
    00:00 +4°C° 0 mm 3 mps 762 mmHg 67%
    01:00 +4°C° 0 mm 3 mps 763 mmHg 67%
    02:00 +4°C° 0 mm 3 mps 762 mmHg 69%
    03:00 +3°C° 0 mm 3 mps 762 mmHg 72%
    04:00 +3°C° 0 mm 3 mps 762 mmHg 74%
    05:00 +3°C° 0 mm 3 mps 762 mmHg 75%
    06:00 +3°C° 0 mm 3 mps 763 mmHg 76%
    07:00 +4°C° 0 mm 3 mps 763 mmHg 78%
    08:00 +5°C° 0 mm 3 mps 763 mmHg 75%
    09:00 +8°C° 0 mm 3 mps 763 mmHg 73%
    10:00 +9°C° 0 mm 3 mps 763 mmHg 71%
    11:00 +11°C° 0 mm 3 mps 763 mmHg 68%
    12:00 +12°C° 0 mm 3 mps 763 mmHg 64%
    13:00 +14°C° 0 mm 3 mps 762 mmHg 60%
    14:00 +14°C° 0 mm 3 mps 762 mmHg 60%
    15:00 +14°C° 0 mm 3 mps 762 mmHg 60%
    16:00 +15°C° 0 mm 2 mps 761 mmHg 60%
    17:00 +14°C° 0 mm 2 mps 761 mmHg 68%
    18:00 +12°C° 0 mm 1 mps 761 mmHg 75%
    19:00 +11°C° 0 mm 1 mps 761 mmHg 83%
    20:00 +10°C° 0 mm 1 mps 761 mmHg 85%
    21:00 +10°C° 0 mm 1 mps 761 mmHg 87%
    22:00 +9°C° 0 mm 1 mps 761 mmHg 90%
    23:00 +9°C° 0 mm 1 mps 762 mmHg 90%

    Day after tomorrow, 22 March, Friday

    Time Temperature Precipitation Wind Pressure Humidity
    00:00 +9°C° 0 mm 1 mps 762 mmHg 91%
    01:00 +8°C° 0 mm 2 mps 762 mmHg 92%
    02:00 +7°C° 0 mm 2 mps 761 mmHg 92%
    03:00 +7°C° 0 mm 2 mps 761 mmHg 92%
    04:00 +7°C° 0 mm 2 mps 761 mmHg 92%
    05:00 +7°C° 0 mm 2 mps 761 mmHg 91%
    06:00 +7°C° 0 mm 2 mps 761 mmHg 90%
    07:00 +7°C° 0 mm 2 mps 761 mmHg 89%
    08:00 +11°C° 0 mm 1 mps 761 mmHg 80%
    09:00 +13°C° 0 mm 1 mps 761 mmHg 71%
    10:00 +15°C° 0 mm 1 mps 762 mmHg 62%
    11:00 +16°C° 0 mm 1 mps 761 mmHg 58%
    12:00 +19°C° 0 mm 1 mps 761 mmHg 54%
    13:00 +20°C° 0 mm 1 mps 761 mmHg 50%
    14:00 +20°C° 0 mm 1 mps 760 mmHg 49%
    15:00 +20°C° 0 mm 1 mps 759 mmHg 48%
    16:00 +20°C° 0 mm 1 mps 759 mmHg 47%
    17:00 +18°C° 0 mm 1 mps 759 mmHg 53%
    18:00 +16°C° 0 mm 1 mps 759 mmHg 59%
    19:00 +14°C° 0 mm 1 mps 759 mmHg 65%
    20:00 +13°C° 0 mm 1 mps 759 mmHg 68%
    21:00 +13°C° 0 mm 1 mps 759 mmHg 71%
    22:00 +12°C° 0 mm 2 mps 759 mmHg 73%
    23:00 +10°C° 0 mm 2 mps 758 mmHg 73%

    23 March, Saturday

    Time Temperature Precipitation Wind Pressure Humidity
    00:00 +10°C° 0 mm 2 mps 758 mmHg 74%
    01:00 +10°C° 0 mm 2 mps 758 mmHg 74%
    02:00 +10°C° 0 mm 2 mps 758 mmHg 75%
    03:00 +9°C° 0 mm 3 mps 758 mmHg 75%
    04:00 +9°C° 0 mm 3 mps 757 mmHg 76%
    05:00 +9°C° 0 mm 3 mps 758 mmHg 75%
    06:00 +9°C° 0 mm 3 mps 758 mmHg 74%
    07:00 +9°C° 0 mm 3 mps 758 mmHg 73%
    08:00 +11°C° 0 mm 3 mps 758 mmHg 69%
    09:00 +13°C° 0 mm 3 mps 758 mmHg 64%
    10:00 +14°C° 0 mm 3 mps 758 mmHg 59%
    11:00 +16°C° 0 mm 3 mps 758 mmHg 56%
    12:00 +17°C° 0 mm 3 mps 758 mmHg 53%
    13:00 +18°C° 0 mm 3 mps 758 mmHg 50%
    14:00 +18°C° 0 mm 3 mps 758 mmHg 52%
    15:00 +17°C° 0 mm 3 mps 758 mmHg 55%
    16:00 +17°C° 0 mm 3 mps 758 mmHg 57%
    17:00 +14°C° 0 mm 3 mps 758 mmHg 64%
    18:00 +13°C° 0 mm 3 mps 759 mmHg 72%
    19:00 +11°C° 0 mm 3 mps 759 mmHg 79%
    20:00 +11°C° 0 mm 3 mps 759 mmHg 76%
    21:00 +10°C° 0 mm 3 mps 760 mmHg 73%
    22:00 +10°C° 0 mm 3 mps 760 mmHg 70%
    23:00 +9°C° 0 mm 3 mps 760 mmHg 64%

    24 March, Sunday

    Time Temperature Precipitation Wind Pressure Humidity
    00:00 +8°C° 0 mm 3 mps 760 mmHg 58%
    01:00 +7°C° 0 mm 3 mps 760 mmHg 52%
    02:00 +5°C° 0 mm 3 mps 760 mmHg 53%
    03:00 +6°C° 0 mm 2 mps 760 mmHg 54%
    04:00 +5°C° 0 mm 2 mps 759 mmHg 56%
    05:00 +5°C° 0 mm 2 mps 759 mmHg 58%
    06:00 +5°C° 0 mm 2 mps 759 mmHg 61%
    07:00 +4°C° 0 mm 2 mps 759 mmHg 63%
    08:00 +6°C° 0 mm 2 mps 759 mmHg 57%
    09:00 +7°C° 0 mm 2 mps 759 mmHg 52%
    10:00 +9°C° 0 mm 2 mps 759 mmHg 46%
    11:00 +10°C° 0 mm 2 mps 758 mmHg 43%
    12:00 +12°C° 0 mm 2 mps 758 mmHg 40%
    13:00 +13°C° 0 mm 2 mps 757 mmHg 37%
    14:00 +13°C° 0 mm 2 mps 756 mmHg 37%
    15:00 +13°C° 0 mm 2 mps 756 mmHg 37%
    16:00 +13°C° 0 mm 1 mps 755 mmHg 36%
    17:00 +12°C° 0 mm 1 mps 755 mmHg 41%
    18:00 +10°C° 0 mm 1 mps 755 mmHg 46%
    19:00 +8°C° 0 mm 0 mps 755 mmHg 50%
    20:00 +7°C° 0 mm 0 mps 754 mmHg 52%
    21:00 +7°C° 0 mm 1 mps 754 mmHg 54%
    22:00 +7°C° 0 mm 1 mps 754 mmHg 55%
    23:00 +7°C° 0 mm 1 mps 753 mmHg 56%

    25 March, Monday

    Time Temperature Precipitation Wind Pressure Humidity
    00:00 +6°C° 0 mm 1 mps 753 mmHg 57%
    01:00 +5°C° 0 mm 2 mps 753 mmHg 58%
    02:00 +4°C° 0 mm 3 mps 752 mmHg 62%
    03:00 +5°C° 0 mm 3 mps 752 mmHg 65%
    04:00 +6°C° 0 mm 4 mps 752 mmHg 69%
    05:00 +5°C° 0 mm 4 mps 752 mmHg 68%
    06:00 +3°C° 0 mm 5 mps 751 mmHg 68%
    07:00 +2°C° 0 mm 5 mps 751 mmHg 67%
    08:00 +3°C° 0 mm 6 mps 751 mmHg 64%
    09:00 +5°C° 0 mm 6 mps 751 mmHg 62%
    10:00 +6°C° 0 mm 7 mps 750 mmHg 59%
    11:00 +6°C° 0.1 mm 7 mps 750 mmHg 64%
    12:00 +5°C° 0.1 mm 7 mps 749 mmHg 68%
    13:00 +5°C° 0.1 mm 8 mps 749 mmHg 72%
    14:00 +5°C° 0.4 mm 8 mps 749 mmHg 67%
    15:00 +5°C° 0.4 mm 8 mps 748 mmHg 61%
    16:00 +4°C° 0.4 mm 8 mps 748 mmHg 56%
    17:00 +4°C° 0.1 mm 7 mps 748 mmHg 60%
    18:00 +3°C° 0.1 mm 7 mps 748 mmHg 63%
    19:00 +2°C° 0.1 mm 6 mps 749 mmHg 66%
    20:00 +1°C° 0 mm 6 mps 748 mmHg 67%
    21:00 +1°C° 0 mm 6 mps 748 mmHg 67%
    22:00 0°C° 0 mm 7 mps 748 mmHg 68%
    23:00 0°C° 0.1 mm 7 mps 748 mmHg 67%
    Show more